Lid_Strength_Index
1 5 8 9 12 14 16 14 13 12 11 9 8 9 9 9 9 11 4 1 1 1 -0 -0 -0 -1 -1 -1 -1 -1 -1 -1 -1 -1 -1 -1 -1 -1 -1 -1 -1 -1 -1 -1 -2 -2 -1 -1 -1
5 6 9 12 15 17 16 13 12 11 9 8 8 8 8 9 5 5 4 1 0 0 0 -0 -0 -0 -1 -1 -1 -1 -1 -1 -1 -1 -1 -1 -1 -1 -1 -1 -1 -1 -2 -2 -2 -1 -1 -1 -1
5 6 10 13 17 17 15 12 12 10 9 9 9 8 7 7 5 4 2 1 0 0 0 -0 -0 -0 -1 -1 -1 -1 -1 -1 -1 -1 -1 -1 -1 -1 -1 -1 -1 -1 -2 -2 -1 -1 -1 -1 -1
7 8 11 15 16 14 13 11 10 9 9 9 9 9 7 4 4 2 1 1 1 1 0 0 0 -0 -0 -1 -1 -1 -1 -0 -1 -0 -1 -1 -1 -1 -1 -1 -1 -2 -2 -1 -2 -1 -1 -1 -1
10 11 15 17 16 13 11 10 9 10 10 8 9 9 8 4 2 2 1 1 1 1 0 0 0 -0 -0 -1 -1 -1 -1 -0 -1 -1 -1 -1 -2 -1 -1 -1 -1 -1 -2 -1 -1 -1 -1 -1 -1
11 12 16 17 15 12 11 9 10 9 9 9 9 8 8 4 3 2 1 1 1 2 1 0 -0 -0 -0 -0 -0 -0 -0 -0 -0 -1 -1 -1 -1 -1 -1 -1 -1 -1 -1 -1 -1 -1 -1 -1 -1
13 14 16 16 15 13 11 9 10 10 11 10 9 9 6 5 3 2 2 2 2 1 1 1 1 -0 0 1 0 0 1 0 -1 -1 -1 -1 -1 -1 -2 -1 -1 -2 -1 -1 -1 -1 -1 -1 -1
12 13 17 15 15 14 10 10 10 10 11 8 7 8 8 5 2 2 2 2 3 2 2 2 2 1 0 0 1 1 1 -0 -0 -1 -1 -1 -1 -1 -1 -1 -2 -2 -1 -1 -1 -1 -1 -1 -0
12 15 17 15 14 12 10 11 9 9 10 9 9 7 4 3 2 3 3 4 4 3 3 3 2 2 1 1 1 0 1 0 -0 -0 -1 -0 -0 -0 -0 -1 -1 -1 -1 -1 -1 -1 -1 -1 -1
12 16 15 12 12 12 10 12 10 10 10 10 9 5 4 4 4 4 4 4 4 3 3 3 3 3 3 2 3 2 1 1 0 0 -0 -0 -0 -1 -1 -1 -1 -1 -1 -1 -1 -0 -0 -0 0
13 14 12 11 11 11 11 11 10 11 11 9 9 8 5 5 4 4 4 4 3 3 3 3 3 3 3 2 1 1 1 1 0 1 0 -0 -0 -0 -0 -0 -0 -1 -1 -0 0 1 2 1 1
14 12 10 11 10 11 11 11 11 11 9 7 8 8 5 5 5 4 4 4 3 3 2 3 3 3 1 2 2 1 1 0 1 1 0 0 -0 0 0 0 -0 -0 -0 1 1 3 3 2 3
12 12 10 10 10 10 10 10 10 10 8 8 8 8 5 5 5 4 3 3 3 3 3 3 3 2 1 2 2 2 1 1 1 1 1 1 0 0 1 -0 -0 0 1 1 2 4 3 3 3
11 11 10 10 10 10 10 9 11 9 9 8 7 8 8 5 4 4 4 4 3 3 3 3 3 2 1 1 2 2 1 1 2 1 1 1 1 1 1 0 0 1 1 2 2 4 4 4 3
10 12 12 12 11 11 10 12 12 8 8 8 8 8 8 6 4 4 3 3 3 2 3 3 4 3 2 1 2 2 2 1 2 2 1 1 1 1 0 0 0 1 1 3 4 5 4 4 3
12 13 15 12 10 10 10 13 10 8 9 9 8 8 8 8 6 3 3 3 3 3 3 3 3 4 3 3 2 1 2 1 1 1 1 1 1 1 0 0 1 1 2 4 4 5 5 4 4
15 17 15 13 10 10 11 12 11 10 9 9 9 9 9 9 9 7 3 3 3 2 3 4 4 4 4 4 1 1 1 1 1 0 1 1 1 1 0 0 1 2 3 4 4 5 4 5 5
17 16 14 14 12 11 12 12 11 9 10 10 10 9 9 9 8 7 4 3 3 3 3 4 4 4 4 3 1 1 1 1 1 1 1 1 1 1 0 1 2 2 4 4 4 5 6 5 5
13 14 15 14 11 12 12 12 12 11 11 11 10 10 9 9 7 5 4 4 4 4 4 5 4 5 2 2 2 2 2 1 1 0 0 1 2 1 1 2 3 3 4 5 4 5 5 7 5
14 14 15 13 11 11 12 12 10 11 11 10 10 10 9 9 6 5 5 4 3 3 5 5 4 4 2 1 1 2 2 1 1 1 1 1 1 1 2 4 4 4 5 5 5 5 6 6 5
14 14 14 14 12 11 14 14 13 11 11 10 9 9 8 9 8 5 5 5 4 4 5 4 4 3 3 3 2 2 2 1 2 1 1 1 2 3 3 4 5 5 5 6 5 4 5 5 6
16 13 13 13 14 18 14 19 16 13 11 9 9 9 9 9 8 5 5 5 4 4 4 5 4 4 4 3 3 3 3 3 2 2 1 1 3 4 4 5 6 5 4 4 4 4 5 5 7
14 12 13 14 15 17 17 19 18 13 13 11 9 9 8 9 8 6 5 4 3 4 5 4 4 4 4 3 2 2 3 2 2 2 2 3 3 4 4 5 6 5 4 3 4 4 5 4 6
11 13 13 14 16 19 17 17 19 16 13 10 8 7 7 7 8 6 5 4 4 4 5 4 5 4 4 3 2 2 3 2 2 3 3 3 4 4 5 4 5 4 3 3 4 4 5 5 5
11 14 17 18 19 19 15 16 16 12 10 9 9 8 7 6 8 6 6 5 4 4 5 5 4 4 3 3 2 2 2 2 2 3 3 3 4 4 4 4 4 4 4 4 4 4 5 5 6
12 12 17 20 21 18 13 17 14 10 8 7 7 7 6 7 6 6 5 5 4 4 5 4 4 4 2 2 2 2 2 2 2 2 3 3 3 3 3 4 4 3 3 4 4 4 4 5 5
13 14 11 15 15 17 16 14 10 9 9 8 8 7 7 6 6 6 6 5 4 4 5 5 5 4 3 2 2 2 2 2 2 2 2 3 2 2 3 3 4 4 3 3 3 4 4 4 4
11 10 15 15 18 20 17 17 15 13 11 9 9 8 7 6 6 6 5 6 4 4 4 4 5 3 2 3 2 2 2 2 2 2 2 3 2 2 2 3 3 3 3 3 3 3 3 3 4
13 13 13 13 15 18 19 17 12 11 10 10 9 8 7 6 6 6 5 5 4 4 4 5 5 2 2 2 3 4 4 2 2 2 3 2 3 3 2 2 3 3 3 3 3 3 3 3 3
12 13 12 16 16 16 16 16 10 10 9 9 9 8 7 6 7 5 5 5 5 5 5 4 4 3 2 2 2 3 3 3 3 2 2 2 3 2 3 3 3 3 3 2 3 3 3 3 3